SCP
-0 -0 0 -0 -0 -0 -0 -0 0 0 0 -0 -0 -0 -0 0 0 0 0 -0 -0 -0 0 -0 -0 -0 -0 -0 -0 -0 -0 -0 -0 -0 -0 -0 -0 -0 -0 -0 -0 -0 -0 -0 -0 -0 -0 -0 -0
-0 -0 0 -0 0 0 -0 -0 0 0 0 -0 -0 0 -0 0 0 0 -0 0 -0 -0 -0 -0 -0 -0 -0 -0 -0 -0 -0 -0 -0 -0 -0 -0 -0 -0 -0 -0 -0 -0 -0 -0 -0 -0 -0 -0 -0
0 -0 0 -0 -0 -0 0 0 0 0 -0 -0 0 -0 -0 0 -0 -0 -0 -0 -0 -0 -0 -0 -0 -0 -0 -0 -0 -0 -0 -0 -0 -0 -0 -0 -0 -0 -0 -0 -0 -0 -0 -0 -0 -0 -0 -0 -0
0 0 -0 -0 -0 -0 -0 0 0 0 0 -0 -0 -0 0 -0 -0 0 0 -0 -0 -0 -0 -0 -0 -0 -0 -0 -0 -0 -0 -0 -0 -0 -0 -0 -0 -0 -0 -0 -0 -0 -0 -0 -0 -0 -0 -0 -0
0 0 0 -0 0 0 0 0 0 0 0 0 0 0 0 0 0 -0 -0 -0 -0 -0 -0 -0 -0 -0 -0 -0 -0 -0 -0 -0 -0 -0 -0 -0 -0 -0 -0 -0 -0 -0 -0 -0 -0 -0 -0 -0 -0
0 0 0 0 0 0 0 -0 0 0 0 0 0 0 0 0 0 0 -0 -0 0 -0 -0 -0 -0 -0 -0 -0 -0 -0 -0 -0 -0 -0 -0 -0 -0 -0 -0 -0 -0 -0 -0 -0 -0 -0 -0 -0 -0
0 0 0 0 0 0 0 0 0 0 0 0 -0 0 0 0 0 0 -0 -0 -0 -0 -0 0 -0 -0 -0 -0 -0 -0 -0 -0 -0 -0 -0 -0 -0 -0 -0 -0 -0 -0 -0 -0 -0 -0 -0 -0 -0
0 0 0 0 0 0 0 0 0 0 0 0 0 0 0 0 0 0 0 0 0 0 0 0 0 0 0 0 0 -0 -0 -0 -0 -0 -0 -0 -0 -0 -0 -0 -0 -0 -0 -0 -0 -0 -0 -0 0
0 0 0 0 0 0 0 0 0 0 0 0 0 0 0 0 0 0 0 0 0 0 0 0 0 0 0 0 0 0 -0 -0 -0 -0 -0 -0 0 -0 0 -0 -0 0 0 0 0 0 0 0 0
0 0 0 0 0 0 0 0 0 0 0 0 0 0 0 0 0 0 0 0 0 0 0 0 0 0 0 0 0 0 0 0 0 0 0 0 0 0 0 0 0 0 0 0 0 0 0 0 0
0 0 0 0 0 0 0 0 0 0 0 0 0 0 0 0 0 0 0 0 0 0 0 0 0 0 0 0 0 0 0 0 0 0 0 0 0 0 0 0 0 0 0 0 0 0 0 0 0
0 0 0 0 0 0 0 0 0 0 0 0 0 0 0 0 0 0 0 0 0 0 0 0 0 0 0 0 0 0 0 0 0 0 0 0 0 0 0 0 0 0 0 0 0 0 0 0 0
0 0 0 0 0 0 0 0 0 0 0 0 0 0 0 0 0 0 0 0 0 0 0 0 0 0 0 0 0 0 0 0 0 0 0 0 0 0 0 0 0 0 0 0 0 0 0 0 0
0 0 0 0 0 0 0 0 0 0 0 0 0 0 0 0 0 0 0 0 0 0 0 0 0 0 0 0 0 0 0 0 0 0 0 0 0 0 0 0 0 0 0 0 0 0 0 0 0
0 0 0 0 0 0 0 0 0 0 0 0 0 0 0 0 0 0 0 0 0 0 0 0 0 0 0 0 0 0 0 0 0 0 0 0 0 0 0 0 0 0 0 0 0 0 0 0 0
0 0 0 0 0 0 0 0 0 0 0 0 0 0 0 0 0 0 0 0 0 0 0 0 0 0 0 0 0 0 0 0 0 0 0 0 0 0 0 0 0 0 0 0 0 0 0 0 0
0 0 0 0 0 0 0 0 0 0 0 0 0 0 0 0 0 0 0 0 0 0 0 0 0 0 0 0 0 0 0 0 0 0 0 0 0 0 0 0 0 0 0 0 0 0 0 0 0
0 0 0 0 0 0 0 0 0 0 0 0 0 0 0 0 0 0 0 0 0 0 0 0 0 0 0 0 0 0 0 0 0 0 0 0 0 0 0 0 0 0 0 0 0 0 0 0 0
0 0 0 0 0 0 0 0 0 0 0 0 0 0 0 0 0 0 0 0 0 0 0 0 0 0 0 0 0 0 0 0 0 0 0 0 0 0 0 0 0 0 0 0 0 0 0 0 0
0 0 0 0 0 0 0 0 0 0 0 0 0 0 0 0 0 0 0 0 0 0 0 0 0 0 0 0 0 0 0 0 0 0 0 0 0 0 0 0 0 0 0 0 0 0 0 0 0
0 0 0 0 0 0 0 0 0 0 0 0 0 0 0 0 0 0 0 0 0 0 0 0 0 0 0 0 0 0 0 0 0 0 0 0 0 0 0 0 0 0 0 0 0 0 0 0 0
0 0 0 0 0 0 0 -0 0 0 0 0 0 0 0 0 0 0 0 0 0 0 0 0 0 0 0 0 0 0 0 0 0 0 0 0 0 0 0 0 0 0 0 0 0 0 0 0 0
0 0 0 0 0 0 0 0 0 0 0 0 0 0 0 0 0 0 0 0 0 0 0 0 0 0 0 0 0 0 0 0 0 0 0 0 0 0 0 0 0 0 0 0 0 0 0 0 0
0 0 0 0 0 0 0 0 -0 0 0 0 -0 0 0 0 0 0 0 0 0 0 0 0 0 0 0 0 0 0 0 0 0 0 0 0 0 0 0 0 0 0 0 0 0 0 0 0 0
0 0 0 0 0 0 0 0 0 0 0 0 0 0 0 0 0 0 0 0 0 0 0 0 0 0 0 0 0 0 0 0 0 0 0 0 0 0 0 0 0 0 0 0 0 0 0 0 0
0 0 0 0 0 0 0 0 0 0 0 0 0 0 0 0 0 0 0 0 0 0 0 0 0 0 0 0 0 0 0 0 0 0 0 0 0 0 0 0 0 0 0 0 0 0 0 0 0
0 0 0 0 0 0 0 0 0 0 0 0 0 0 0 0 0 0 0 0 0 0 0 0 0 0 0 0 0 0 0 0 0 0 0 0 0 0 0 0 0 0 0 0 0 0 0 0 0
0 0 0 0 0 0 0 0 0 0 0 -0 -0 0 0 0 0 0 0 0 0 0 0 0 0 0 0 0 0 0 0 0 0 0 0 0 0 0 0 0 0 0 0 0 0 0 0 0 0
0 0 0 0 0 0 0 0 0 0 0 0 0 0 0 0 0 0 0 0 0 0 0 0 0 0 0 0 0 0 0 0 0 0 0 0 0 0 0 0 0 0 0 0 0 0 0 0 0
0 0 0 0 0 0 0 0 0 0 0 0 0 0 0 0 0 0 0 0 0 0 0 0 0 0 0 0 0 0 0 0 0 0 0 0 0 0 0 0 0 0 0 0 0 0 0 0 0
Wind_Speed_500mb
8 8 10 5 8 11 3 3 4 3 6 15 28 30 22 13 4 6 25 19 11 21 31 26 25 24 23 22 21 19 16 15 13 12 11 15 16 19 20 22 24 20 17 18 19 20 19 20 21
9 9 5 6 10 8 8 3 8 6 28 48 36 27 20 6 13 20 10 10 18 22 30 27 25 23 22 21 21 19 15 12 11 11 9 10 13 18 21 23 25 22 16 17 18 19 17 18 18
7 5 4 9 8 9 10 7 12 15 40 11 11 21 10 5 14 16 15 20 23 23 20 27 25 24 24 23 21 18 14 11 10 11 10 9 14 15 18 21 24 25 22 20 19 20 19 17 17
3 3 9 10 7 3 15 13 16 14 8 10 32 17 12 5 9 17 23 25 25 25 23 25 21 20 21 23 23 21 16 12 11 13 10 8 15 18 20 22 23 23 21 19 18 18 17 15 14
6 5 9 8 2 2 4 23 22 10 10 16 12 11 14 23 27 25 22 22 26 26 27 25 25 20 17 17 20 19 16 14 12 14 11 7 12 14 16 19 21 22 20 18 17 18 17 15 13
4 5 10 4 5 4 5 23 18 12 13 17 18 19 15 26 28 26 27 29 30 32 30 29 29 28 28 22 20 20 18 15 14 14 13 7 8 9 12 16 19 18 17 17 18 18 18 17 12
10 8 9 9 9 4 8 12 13 15 17 8 30 12 19 32 30 29 27 33 37 37 35 31 26 34 31 26 22 22 21 20 17 16 15 10 4 4 10 15 19 20 17 15 17 19 19 17 13
6 10 5 3 10 9 7 6 12 21 7 19 19 15 15 42 39 34 32 29 34 37 38 33 35 36 35 31 25 20 20 21 20 18 17 14 11 5 8 10 21 28 22 21 18 17 19 18 17
5 9 2 1 9 7 17 7 7 12 20 11 13 21 20 49 43 38 38 39 38 40 40 34 37 41 39 32 27 24 21 18 19 20 18 16 13 11 6 7 11 19 27 28 26 26 25 22 20
9 7 10 4 5 6 8 10 19 12 13 7 16 23 43 47 44 42 39 39 40 41 44 44 38 40 42 39 33 29 29 27 22 23 21 20 21 14 13 4 4 10 18 23 25 27 31 24 24
5 8 7 4 5 5 11 7 15 19 8 23 32 38 42 45 44 43 42 39 38 41 44 45 45 43 36 42 36 34 34 37 33 29 26 25 25 23 20 12 7 2 8 12 16 19 23 24 21
4 4 6 6 6 7 8 7 9 21 15 23 29 35 41 44 45 44 42 39 37 36 38 41 41 41 39 51 47 36 37 36 36 36 32 30 30 25 25 17 11 9 4 4 9 9 11 14 12
5 2 5 7 11 10 11 16 15 21 24 21 26 38 38 40 41 42 41 41 38 35 35 38 38 38 40 46 56 47 41 40 41 38 35 34 31 34 33 24 15 10 6 3 3 7 6 4 4
7 4 11 13 23 12 10 10 11 20 31 31 35 40 41 41 41 43 44 42 38 34 32 33 33 35 41 52 57 56 50 48 43 40 38 35 37 36 38 28 19 16 12 8 9 8 5 6 3
2 6 10 22 18 10 12 14 20 34 34 44 45 44 44 45 46 45 43 44 40 37 35 33 32 34 40 49 52 57 55 53 46 45 41 41 38 41 31 32 25 19 18 15 13 13 7 7 3
4 6 5 6 18 8 16 21 14 23 45 53 50 48 49 50 50 49 50 47 44 40 37 35 35 37 40 49 50 51 52 47 44 46 44 41 43 40 38 28 28 20 20 19 10 12 7 5 4
9 7 10 16 21 9 10 16 7 14 48 52 54 55 55 52 55 56 55 49 46 42 39 37 37 41 44 52 51 53 51 47 41 42 42 43 43 42 36 35 28 23 23 19 16 12 8 7 7
12 9 10 13 10 6 9 26 13 17 39 56 59 59 60 62 66 58 56 52 48 43 41 38 34 37 46 55 52 53 54 49 44 36 37 38 38 35 33 33 28 26 21 18 14 9 10 16 18
9 9 11 8 8 11 18 28 30 41 46 53 59 64 69 72 66 61 59 55 50 46 42 38 37 45 53 50 57 57 54 51 44 36 36 35 36 34 31 29 28 26 22 17 17 15 16 19 21
11 10 20 14 12 16 19 27 20 21 32 63 76 84 83 78 75 72 68 60 52 44 40 37 40 48 54 55 56 60 55 50 45 40 39 37 34 32 30 29 29 26 25 25 22 18 17 22 15
18 17 10 18 5 7 9 19 18 20 54 65 79 90 86 92 90 85 75 66 54 51 46 42 48 56 61 62 66 60 61 56 49 47 45 41 35 33 30 30 30 29 24 20 17 12 9 11 15
13 14 11 11 3 13 7 20 13 12 24 21 69 79 92 86 82 89 81 71 62 55 48 47 55 60 61 62 61 65 58 54 53 52 48 42 40 39 37 33 30 25 20 14 11 10 8 9 9
14 9 11 4 6 5 8 11 14 15 17 26 47 68 71 77 87 88 92 76 62 57 55 55 56 61 65 63 69 68 63 55 56 56 52 52 48 42 38 31 26 20 17 14 12 11 11 11 13
14 10 11 8 5 12 20 19 12 13 25 14 42 53 62 66 74 81 87 71 62 61 61 60 62 61 64 66 63 62 60 61 62 60 61 58 53 45 36 30 24 19 14 12 10 10 12 14 15
9 13 4 7 2 16 8 14 34 14 11 18 26 51 34 49 66 79 87 78 71 71 71 68 70 70 68 65 64 63 62 60 62 67 65 60 53 46 39 30 23 17 13 9 9 11 13 15 15
16 17 12 14 9 10 5 16 12 18 34 51 60 48 32 47 62 78 86 81 75 74 77 74 74 73 71 69 67 65 65 65 69 69 62 54 48 43 38 31 23 17 12 7 6 8 11 13 14
11 18 11 4 5 4 11 16 16 17 18 29 54 33 27 47 65 79 84 80 75 77 81 80 80 78 75 72 70 71 70 74 74 66 58 53 49 43 38 31 25 18 13 7 3 6 9 10 10
12 12 5 3 4 11 11 15 20 12 17 31 20 30 35 46 63 74 79 76 73 75 79 80 80 79 77 73 74 73 77 78 73 68 62 56 49 44 39 33 25 19 13 7 2 2 5 5 6
7 8 6 10 10 10 6 15 13 12 15 18 20 37 42 50 60 71 74 73 71 75 84 84 84 84 81 80 78 80 83 78 72 66 60 54 50 45 39 32 27 22 16 11 6 3 2 3 4
2 16 13 13 13 9 3 34 11 10 8 16 28 20 29 43 52 60 67 70 73 78 83 87 87 86 86 85 83 83 84 81 75 68 61 57 52 47 40 35 31 25 20 16 10 5 3 4 5
Wind_Direction_500mb
187 183 149 137 61 67 355 61 151 98 55 80 86 104 108 69 69 175 151 189 199 173 168 167 164 160 157 151 144 139 130 114 113 115 92 53 38 37 51 43 40 40 50 57 63 66 70 77 89
143 138 126 98 85 73 288 305 133 154 125 110 94 96 55 60 88 129 144 171 164 169 172 172 169 166 165 161 155 153 147 130 130 133 126 65 42 48 41 41 40 43 61 64 66 69 73 84 99
122 115 90 92 109 154 168 211 171 146 150 159 104 80 88 82 133 151 166 167 154 162 175 176 174 173 172 172 173 170 161 148 140 146 139 73 62 64 57 48 46 50 58 59 57 61 69 85 100
141 96 70 85 122 240 160 192 180 143 135 113 124 74 88 121 144 138 152 159 159 164 173 173 171 171 174 175 179 178 174 165 155 158 155 87 70 72 61 52 50 54 59 62 61 62 70 83 104
73 63 60 84 48 110 143 171 163 151 132 132 139 140 110 115 132 144 147 162 166 159 163 177 178 178 190 187 189 185 180 173 168 163 160 123 89 75 60 50 46 47 52 57 61 65 72 85 108
91 71 64 130 188 194 217 168 152 156 135 135 111 114 143 144 153 156 162 169 171 164 178 182 190 190 194 205 199 196 195 188 182 179 176 160 106 79 58 46 42 47 50 52 61 68 74 80 93
106 81 170 146 173 170 208 159 126 158 138 109 138 116 154 165 173 167 177 173 176 177 182 187 197 196 206 211 206 202 202 197 190 187 187 189 163 83 50 46 44 46 53 59 57 58 62 71 80
92 93 94 85 184 213 211 126 120 161 125 134 169 168 180 178 181 176 183 185 189 193 192 189 192 203 207 206 200 201 208 202 201 201 199 206 203 171 92 57 53 49 47 54 63 66 69 73 74
83 63 117 120 171 212 174 142 135 142 144 150 169 162 168 177 182 187 190 194 199 205 208 206 194 202 211 211 205 193 205 211 212 202 204 207 201 155 162 15 27 63 69 65 61 56 52 52 56
80 99 198 193 173 190 195 197 161 159 153 135 151 157 163 180 188 193 200 205 205 204 204 207 206 204 208 204 203 207 208 217 220 224 210 212 204 197 191 165 57 38 60 61 73 63 56 58 66
121 159 205 202 148 150 176 196 183 155 221 202 193 175 176 188 196 204 210 212 213 210 211 211 214 216 214 204 198 199 211 210 213 219 215 213 214 206 199 200 182 138 81 66 66 68 59 60 69
87 225 211 201 190 177 185 200 215 201 220 223 218 199 190 193 203 211 219 220 221 219 216 215 215 214 212 207 201 199 212 221 220 218 215 214 206 210 207 216 187 169 142 87 79 68 60 69 73
161 254 233 254 243 236 208 228 222 231 227 206 196 194 199 200 205 212 220 225 228 226 218 216 218 219 213 209 206 205 205 210 214 219 212 212 215 214 202 194 192 205 207 227 43 308 5 358 69
174 240 270 266 249 240 206 235 206 229 214 201 202 206 211 213 216 216 216 218 217 216 216 217 218 215 210 212 209 206 206 206 211 215 215 209 209 210 224 194 213 220 230 228 259 240 346 302 285
268 299 315 247 231 227 207 287 235 229 211 209 213 218 220 223 224 227 225 221 219 221 226 230 229 225 216 211 208 202 210 214 211 212 211 208 200 206 221 228 220 234 241 225 227 234 239 260 270
359 44 329 284 152 222 158 269 254 223 208 211 215 220 226 227 232 230 229 225 226 228 232 237 236 230 219 208 199 200 208 212 210 207 207 207 197 196 205 209 201 202 216 208 220 219 191 186 241
355 243 222 310 190 143 173 261 264 231 206 216 218 224 231 231 231 229 229 227 229 233 238 239 236 226 213 202 198 202 204 204 205 199 193 194 196 200 204 197 197 210 202 196 190 200 210 246 192
206 222 241 231 208 156 218 262 266 223 213 225 226 230 233 234 236 229 227 228 232 236 238 238 235 219 202 199 197 203 203 200 199 201 194 190 190 193 192 192 191 188 185 183 197 208 156 140 136
172 199 238 244 217 181 227 240 250 241 232 241 240 237 235 237 236 229 229 230 232 232 231 229 223 201 195 197 197 194 193 193 194 195 189 187 184 179 179 182 183 186 190 188 155 142 128 129 130
234 237 259 297 229 184 253 252 245 225 236 235 241 244 243 237 229 224 226 228 231 232 225 220 207 192 190 193 194 197 189 187 185 192 185 177 177 180 184 187 180 172 169 157 148 141 135 130 157
233 224 236 231 349 245 320 271 239 244 237 249 250 254 252 244 230 221 221 225 225 224 219 216 197 193 195 195 192 192 191 183 186 191 186 182 184 181 177 166 159 155 151 148 142 136 131 126 123
220 211 214 248 306 262 139 285 225 236 244 234 250 245 245 242 237 227 221 222 224 220 213 204 196 196 193 196 198 194 197 198 192 193 188 182 176 171 162 160 155 151 148 144 139 121 102 71 63
229 181 207 242 231 334 199 278 275 204 244 249 249 252 249 245 239 228 220 219 220 212 206 198 200 198 197 197 199 196 191 195 198 187 182 173 166 165 163 159 155 158 155 144 122 96 72 55 38
147 86 50 50 29 268 205 216 197 204 223 246 261 258 255 245 233 226 217 212 213 206 199 198 198 199 198 196 195 197 198 201 193 184 178 171 168 165 163 163 162 157 141 118 96 68 50 42 34
129 117 295 317 331 252 323 228 251 289 241 219 251 270 254 238 225 218 207 205 205 201 197 196 198 200 201 200 199 199 200 207 201 187 180 175 172 171 168 166 160 149 135 113 76 50 33 30 27
193 164 163 216 213 278 342 244 256 231 254 253 261 278 266 229 222 216 207 207 206 203 198 199 201 202 202 202 200 201 202 202 193 185 181 179 178 175 171 169 166 164 149 122 76 46 32 28 20
199 212 184 11 91 358 227 287 278 257 284 266 257 274 231 223 217 212 207 209 207 206 202 202 203 204 204 201 202 201 199 195 188 183 182 182 180 178 176 175 175 169 168 159 94 31 27 24 16
156 167 87 17 215 253 279 270 243 274 245 248 267 243 227 219 215 212 211 210 211 210 207 204 207 207 205 206 206 201 194 191 187 185 185 185 183 183 181 179 175 175 176 175 172 8 12 13 5
148 177 174 136 157 193 275 258 216 226 245 264 265 261 231 219 220 218 215 213 214 211 209 206 207 208 209 210 204 197 193 191 190 189 188 188 187 187 185 183 185 187 191 200 212 232 326 332 333
336 196 169 174 206 237 152 266 172 188 245 269 291 288 235 227 223 221 219 215 214 213 209 208 209 211 211 209 203 197 195 193 193 192 191 191 193 190 191 191 191 195 202 207 214 236 266 275 296
Wind_Speed_850mb
8 8 10 5 8 11 3 3 4 3 6 15 28 30 22 13 4 6 25 19 11 21 31 26 25 24 23 22 21 19 16 15 13 12 11 15 16 19 20 22 24 20 17 18 19 20 19 20 21
9 9 5 6 10 8 8 3 8 6 28 48 36 27 20 6 13 20 10 10 18 22 30 27 25 23 22 21 21 19 15 12 11 11 9 10 13 18 21 23 25 22 16 17 18 19 17 18 18
7 5 4 9 8 9 10 7 12 15 40 11 11 21 10 5 14 16 15 20 23 23 20 27 25 24 24 23 21 18 14 11 10 11 10 9 14 15 18 21 24 25 22 20 19 20 19 17 17
3 3 9 10 7 3 15 13 16 14 8 10 32 17 12 5 9 17 23 25 25 25 23 25 21 20 21 23 23 21 16 12 11 13 10 8 15 18 20 22 23 23 21 19 18 18 17 15 14
6 5 9 8 2 2 4 23 22 10 10 16 12 11 14 23 27 25 22 22 26 26 27 25 25 20 17 17 20 19 16 14 12 14 11 7 12 14 16 19 21 22 20 18 17 18 17 15 13
4 5 10 4 5 4 5 23 18 12 13 17 18 19 15 26 28 26 27 29 30 32 30 29 29 28 28 22 20 20 18 15 14 14 13 7 8 9 12 16 19 18 17 17 18 18 18 17 12
10 8 9 9 9 4 8 12 13 15 17 8 30 12 19 32 30 29 27 33 37 37 35 31 26 34 31 26 22 22 21 20 17 16 15 10 4 4 10 15 19 20 17 15 17 19 19 17 13
6 10 5 3 10 9 7 6 12 21 7 19 19 15 15 42 39 34 32 29 34 37 38 33 35 36 35 31 25 20 20 21 20 18 17 14 11 5 8 10 21 28 22 21 18 17 19 18 17
5 9 2 1 9 7 17 7 7 12 20 11 13 21 20 49 43 38 38 39 38 40 40 34 37 41 39 32 27 24 21 18 19 20 18 16 13 11 6 7 11 19 27 28 26 26 25 22 20
9 7 10 4 5 6 8 10 19 12 13 7 16 23 43 47 44 42 39 39 40 41 44 44 38 40 42 39 33 29 29 27 22 23 21 20 21 14 13 4 4 10 18 23 25 27 31 24 24
5 8 7 4 5 5 11 7 15 19 8 23 32 38 42 45 44 43 42 39 38 41 44 45 45 43 36 42 36 34 34 37 33 29 26 25 25 23 20 12 7 2 8 12 16 19 23 24 21
4 4 6 6 6 7 8 7 9 21 15 23 29 35 41 44 45 44 42 39 37 36 38 41 41 41 39 51 47 36 37 36 36 36 32 30 30 25 25 17 11 9 4 4 9 9 11 14 12
5 2 5 7 11 10 11 16 15 21 24 21 26 38 38 40 41 42 41 41 38 35 35 38 38 38 40 46 56 47 41 40 41 38 35 34 31 34 33 24 15 10 6 3 3 7 6 4 4
7 4 11 13 23 12 10 10 11 20 31 31 35 40 41 41 41 43 44 42 38 34 32 33 33 35 41 52 57 56 50 48 43 40 38 35 37 36 38 28 19 16 12 8 9 8 5 6 3
2 6 10 22 18 10 12 14 20 34 34 44 45 44 44 45 46 45 43 44 40 37 35 33 32 34 40 49 52 57 55 53 46 45 41 41 38 41 31 32 25 19 18 15 13 13 7 7 3
4 6 5 6 18 8 16 21 14 23 45 53 50 48 49 50 50 49 50 47 44 40 37 35 35 37 40 49 50 51 52 47 44 46 44 41 43 40 38 28 28 20 20 19 10 12 7 5 4
9 7 10 16 21 9 10 16 7 14 48 52 54 55 55 52 55 56 55 49 46 42 39 37 37 41 44 52 51 53 51 47 41 42 42 43 43 42 36 35 28 23 23 19 16 12 8 7 7
12 9 10 13 10 6 9 26 13 17 39 56 59 59 60 62 66 58 56 52 48 43 41 38 34 37 46 55 52 53 54 49 44 36 37 38 38 35 33 33 28 26 21 18 14 9 10 16 18
9 9 11 8 8 11 18 28 30 41 46 53 59 64 69 72 66 61 59 55 50 46 42 38 37 45 53 50 57 57 54 51 44 36 36 35 36 34 31 29 28 26 22 17 17 15 16 19 21
11 10 20 14 12 16 19 27 20 21 32 63 76 84 83 78 75 72 68 60 52 44 40 37 40 48 54 55 56 60 55 50 45 40 39 37 34 32 30 29 29 26 25 25 22 18 17 22 15
18 17 10 18 5 7 9 19 18 20 54 65 79 90 86 92 90 85 75 66 54 51 46 42 48 56 61 62 66 60 61 56 49 47 45 41 35 33 30 30 30 29 24 20 17 12 9 11 15
13 14 11 11 3 13 7 20 13 12 24 21 69 79 92 86 82 89 81 71 62 55 48 47 55 60 61 62 61 65 58 54 53 52 48 42 40 39 37 33 30 25 20 14 11 10 8 9 9
14 9 11 4 6 5 8 11 14 15 17 26 47 68 71 77 87 88 92 76 62 57 55 55 56 61 65 63 69 68 63 55 56 56 52 52 48 42 38 31 26 20 17 14 12 11 11 11 13
14 10 11 8 5 12 20 19 12 13 25 14 42 53 62 66 74 81 87 71 62 61 61 60 62 61 64 66 63 62 60 61 62 60 61 58 53 45 36 30 24 19 14 12 10 10 12 14 15
9 13 4 7 2 16 8 14 34 14 11 18 26 51 34 49 66 79 87 78 71 71 71 68 70 70 68 65 64 63 62 60 62 67 65 60 53 46 39 30 23 17 13 9 9 11 13 15 15
16 17 12 14 9 10 5 16 12 18 34 51 60 48 32 47 62 78 86 81 75 74 77 74 74 73 71 69 67 65 65 65 69 69 62 54 48 43 38 31 23 17 12 7 6 8 11 13 14
11 18 11 4 5 4 11 16 16 17 18 29 54 33 27 47 65 79 84 80 75 77 81 80 80 78 75 72 70 71 70 74 74 66 58 53 49 43 38 31 25 18 13 7 3 6 9 10 10
12 12 5 3 4 11 11 15 20 12 17 31 20 30 35 46 63 74 79 76 73 75 79 80 80 79 77 73 74 73 77 78 73 68 62 56 49 44 39 33 25 19 13 7 2 2 5 5 6
7 8 6 10 10 10 6 15 13 12 15 18 20 37 42 50 60 71 74 73 71 75 84 84 84 84 81 80 78 80 83 78 72 66 60 54 50 45 39 32 27 22 16 11 6 3 2 3 4
2 16 13 13 13 9 3 34 11 10 8 16 28 20 29 43 52 60 67 70 73 78 83 87 87 86 86 85 83 83 84 81 75 68 61 57 52 47 40 35 31 25 20 16 10 5 3 4 5
Wind_Direction_850mb
187 183 149 137 61 67 355 61 151 98 55 80 86 104 108 69 69 175 151 189 199 173 168 167 164 160 157 151 144 139 130 114 113 115 92 53 38 37 51 43 40 40 50 57 63 66 70 77 89
143 138 126 98 85 73 288 305 133 154 125 110 94 96 55 60 88 129 144 171 164 169 172 172 169 166 165 161 155 153 147 130 130 133 126 65 42 48 41 41 40 43 61 64 66 69 73 84 99
122 115 90 92 109 154 168 211 171 146 150 159 104 80 88 82 133 151 166 167 154 162 175 176 174 173 172 172 173 170 161 148 140 146 139 73 62 64 57 48 46 50 58 59 57 61 69 85 100
141 96 70 85 122 240 160 192 180 143 135 113 124 74 88 121 144 138 152 159 159 164 173 173 171 171 174 175 179 178 174 165 155 158 155 87 70 72 61 52 50 54 59 62 61 62 70 83 104
73 63 60 84 48 110 143 171 163 151 132 132 139 140 110 115 132 144 147 162 166 159 163 177 178 178 190 187 189 185 180 173 168 163 160 123 89 75 60 50 46 47 52 57 61 65 72 85 108
91 71 64 130 188 194 217 168 152 156 135 135 111 114 143 144 153 156 162 169 171 164 178 182 190 190 194 205 199 196 195 188 182 179 176 160 106 79 58 46 42 47 50 52 61 68 74 80 93
106 81 170 146 173 170 208 159 126 158 138 109 138 116 154 165 173 167 177 173 176 177 182 187 197 196 206 211 206 202 202 197 190 187 187 189 163 83 50 46 44 46 53 59 57 58 62 71 80
92 93 94 85 184 213 211 126 120 161 125 134 169 168 180 178 181 176 183 185 189 193 192 189 192 203 207 206 200 201 208 202 201 201 199 206 203 171 92 57 53 49 47 54 63 66 69 73 74
83 63 117 120 171 212 174 142 135 142 144 150 169 162 168 177 182 187 190 194 199 205 208 206 194 202 211 211 205 193 205 211 212 202 204 207 201 155 162 15 27 63 69 65 61 56 52 52 56
80 99 198 193 173 190 195 197 161 159 153 135 151 157 163 180 188 193 200 205 205 204 204 207 206 204 208 204 203 207 208 217 220 224 210 212 204 197 191 165 57 38 60 61 73 63 56 58 66
121 159 205 202 148 150 176 196 183 155 221 202 193 175 176 188 196 204 210 212 213 210 211 211 214 216 214 204 198 199 211 210 213 219 215 213 214 206 199 200 182 138 81 66 66 68 59 60 69
87 225 211 201 190 177 185 200 215 201 220 223 218 199 190 193 203 211 219 220 221 219 216 215 215 214 212 207 201 199 212 221 220 218 215 214 206 210 207 216 187 169 142 87 79 68 60 69 73
161 254 233 254 243 236 208 228 222 231 227 206 196 194 199 200 205 212 220 225 228 226 218 216 218 219 213 209 206 205 205 210 214 219 212 212 215 214 202 194 192 205 207 227 43 308 5 358 69
174 240 270 266 249 240 206 235 206 229 214 201 202 206 211 213 216 216 216 218 217 216 216 217 218 215 210 212 209 206 206 206 211 215 215 209 209 210 224 194 213 220 230 228 259 240 346 302 285
268 299 315 247 231 227 207 287 235 229 211 209 213 218 220 223 224 227 225 221 219 221 226 230 229 225 216 211 208 202 210 214 211 212 211 208 200 206 221 228 220 234 241 225 227 234 239 260 270
359 44 329 284 152 222 158 269 254 223 208 211 215 220 226 227 232 230 229 225 226 228 232 237 236 230 219 208 199 200 208 212 210 207 207 207 197 196 205 209 201 202 216 208 220 219 191 186 241
355 243 222 310 190 143 173 261 264 231 206 216 218 224 231 231 231 229 229 227 229 233 238 239 236 226 213 202 198 202 204 204 205 199 193 194 196 200 204 197 197 210 202 196 190 200 210 246 192
206 222 241 231 208 156 218 262 266 223 213 225 226 230 233 234 236 229 227 228 232 236 238 238 235 219 202 199 197 203 203 200 199 201 194 190 190 193 192 192 191 188 185 183 197 208 156 140 136
172 199 238 244 217 181 227 240 250 241 232 241 240 237 235 237 236 229 229 230 232 232 231 229 223 201 195 197 197 194 193 193 194 195 189 187 184 179 179 182 183 186 190 188 155 142 128 129 130
234 237 259 297 229 184 253 252 245 225 236 235 241 244 243 237 229 224 226 228 231 232 225 220 207 192 190 193 194 197 189 187 185 192 185 177 177 180 184 187 180 172 169 157 148 141 135 130 157
233 224 236 231 349 245 320 271 239 244 237 249 250 254 252 244 230 221 221 225 225 224 219 216 197 193 195 195 192 192 191 183 186 191 186 182 184 181 177 166 159 155 151 148 142 136 131 126 123
220 211 214 248 306 262 139 285 225 236 244 234 250 245 245 242 237 227 221 222 224 220 213 204 196 196 193 196 198 194 197 198 192 193 188 182 176 171 162 160 155 151 148 144 139 121 102 71 63
229 181 207 242 231 334 199 278 275 204 244 249 249 252 249 245 239 228 220 219 220 212 206 198 200 198 197 197 199 196 191 195 198 187 182 173 166 165 163 159 155 158 155 144 122 96 72 55 38
147 86 50 50 29 268 205 216 197 204 223 246 261 258 255 245 233 226 217 212 213 206 199 198 198 199 198 196 195 197 198 201 193 184 178 171 168 165 163 163 162 157 141 118 96 68 50 42 34
129 117 295 317 331 252 323 228 251 289 241 219 251 270 254 238 225 218 207 205 205 201 197 196 198 200 201 200 199 199 200 207 201 187 180 175 172 171 168 166 160 149 135 113 76 50 33 30 27
193 164 163 216 213 278 342 244 256 231 254 253 261 278 266 229 222 216 207 207 206 203 198 199 201 202 202 202 200 201 202 202 193 185 181 179 178 175 171 169 166 164 149 122 76 46 32 28 20
199 212 184 11 91 358 227 287 278 257 284 266 257 274 231 223 217 212 207 209 207 206 202 202 203 204 204 201 202 201 199 195 188 183 182 182 180 178 176 175 175 169 168 159 94 31 27 24 16
156 167 87 17 215 253 279 270 243 274 245 248 267 243 227 219 215 212 211 210 211 210 207 204 207 207 205 206 206 201 194 191 187 185 185 185 183 183 181 179 175 175 176 175 172 8 12 13 5
148 177 174 136 157 193 275 258 216 226 245 264 265 261 231 219 220 218 215 213 214 211 209 206 207 208 209 210 204 197 193 191 190 189 188 188 187 187 185 183 185 187 191 200 212 232 326 332 333
336 196 169 174 206 237 152 266 172 188 245 269 291 288 235 227 223 221 219 215 214 213 209 208 209 211 211 209 203 197 195 193 193 192 191 191 193 190 191 191 191 195 202 207 214 236 266 275 296